Regional Weather Roundup
Issued by NWS Green Bay, WI

Home | Current Version | Previous Version | Graphics & Text | Print | Product List | Glossary Off
Versions: 1 2 3 4 5 6 7 8 9 10 11 12 13 14 15 16 17 18 19 20 21 22 23 24 25 26 27 28 29 30 31 32 33 34 35 36 37 38 39 40 41 42 43 44 45 46 47 48 49 50

000
ASUS43 KGRB 281711
RWRGRB

NORTH-CENTRAL AND NORTHEAST WISCONSIN REGIONAL WEATHER ROUNDUP
NATIONAL WEATHER SERVICE GREEN BAY WI
1200 PM CDT THU JUL 28 2016

WIZ005-009-010>012-018-019-281800-
NORTH CENTRAL WISCONSIN

CITY           SKY/WX    TMP DP  RH WIND       PRES   REMARKS
IRONWOOD       MOSUNNY   72  55  56 NE9       30.04S
MANITOWISH WTR CLOUDY    71  57  60 NE7       30.06S
ARBOR VITAE    CLOUDY    72  57  58 NE6       30.06R
EAGLE RIVER    MOSUNNY   71  53  52 E9        30.05S
LAND O LAKES   CLOUDY    70  55  58 NE8       30.07S
RHINELANDER    PTSUNNY   73  57  57 E10       30.05F
PHILLIPS       CLOUDY    69  55  60 NE7       30.05R
ANTIGO         CLOUDY    61  57  87 NE6       30.05S
TOMAHAWK       CLOUDY    67  55  64 E6        30.05R
MERRILL        DRIZZLE   63  60  91 E3        30.05R
$$

WIZ013-073-281800-
NORTHEAST WISCONSIN

CITY           SKY/WX    TMP DP  RH WIND       PRES   REMARKS
IRON MOUNTAIN  MOSUNNY   76  57  51 NE10G17   30.02F
MARINETTE      CLOUDY   N/A N/A N/A NE6       30.02S
OCONTO         CLOUDY    64  64  97 NE5       30.01S
$$

WIZ017-030-035>037-045-281800-
CENTRAL WISCONSIN

CITY           SKY/WX    TMP DP  RH WIND       PRES   REMARKS
MEDFORD        LGT RAIN  61  61 100 NE9G16    30.04R
WAUSAU         CLOUDY    62  59  90 NE7       30.01S
MOSINEE        CLOUDY    63  63 100 NE10      30.02S
MARSHFIELD     LGT RAIN  63  60  90 E13       30.01R
WISC RAPIDS    CLOUDY    65  59  81 E8        30.01R
STEVENS POINT  CLOUDY    62  60  93 NE10      30.01S
WAUPACA        CLOUDY    70  64  82 NE7       29.99S
SHAWANO        LGT RAIN  64  61  90 NE9       30.02S
CLINTONVILLE   CLOUDY    63  61  94 NE7       30.01S
WAUTOMA        CLOUDY    70  63  78 E9        29.98S
$$

WIZ038-039-048-051-281800-
FOX VALLEY

CITY           SKY/WX    TMP DP  RH WIND       PRES   REMARKS
NWS GREEN BAY  CLOUDY    68  65  90 NE14      30.00R
APPLETON       PTSUNNY   70  59  68 E13G21    29.98S
OSHKOSH        PTSUNNY   70  61  73 NE13      29.96F
FOND DU LAC    CLOUDY    74  62  66 E9        29.96S
$$

WIZ022-050-052-281800-
EAST CENTRAL WISCONSIN

CITY           SKY/WX    TMP DP  RH WIND       PRES   REMARKS
EPHRAIM        CLOUDY    65  60  83 NE3       30.00F
WASHINGTON ISL NOT AVBL
STURGEON BAY   LGT RAIN  67  62  84 NE8       30.01S
MANITOWOC      CLOUDY    70  61  73 MISG      29.98S
SHEBOYGAN      CLOUDY    70  61  73 NE18      29.97S
$$

LMZ563-521-522-541>543-281800-
LAKESHORE

STATION/POSITION TIME  TEMP    WIND        PRES    VSBY  WAVE
                       AIR SEA DIR/SP/G                  HT/PER
                 (UTC) (F)     (DEG/KT/KT) (MB)    (MI)  (FT/S)
SHEBOYGAN LKSHOR 1700   61      30/ 16/ 17 1014.7F
KEWAUNEE LKSHORE 1600   63      30/  8/ 12 1015.0F
ALGOMA MARINA    1613           80/  9/ 12   N/A
NORTHPORT PIER   1600   69      50/  6/  9 1016.3S
N MID LAKE BUOY  1650   66 70   10/  8/ 10 1015.5S         1/ 3
SISTER BAY LKSHO 1621   71      40/  4/  7   N/A
CHAMBERS ISLAND  1600   67      30/  6/ 11 1016.3S
MENOMINEE LKSHOR 1600   67      50/  8/ 11 1015.6R
$$




USA.gov is the U.S. government's official web portal to all federal, state and local government web resources and services.